Orbital Elements at Epoch 2459200.5 (2020-Dec-17.0) TDB
Reference: JPL 26 (heliocentric ecliptic J2000)
Element | Value | Uncertainty (1-sigma) | Units |
e | .1617759382212602 | 4.8435e-08 | |
a | 2.948887021614429 | 2.39e-08 | au |
q | 2.471828056984257 | 1.4086e-07 | au |
i | 10.63520538187597 | 5.4131e-06 | deg |
node | 107.7745841163254 | 2.3692e-05 | deg |
peri | 198.4266532678265 | 2.7397e-05 | deg |
M | 238.5994553022664 | 1.5179e-05 | deg |
tp | 2459824.240239308253 (2022-Sep-01.74023931) | 8.069e-05 | TDB |
period | 1849.633267379919 5.06 | 2.2487e-05 6.157e-08 | d yr |
n | .1946331774784494 | 2.3662e-09 | deg/d |
Q | 3.4259459862446 | 2.7767e-08 | au |
|
| | Orbit Determination Parameters
Additional Information
|